Home > Weather > Surgut > Past weeks

Flag for Russia Past Weather in Surgut, Russia — Yesterday and Last 2 Weeks

Now
52 °F

Clear.


Feels Like: 51 °F
Forecast: 52 / 65 °F
Wind: 3 mph from East

Location: Surgut Airport

Current Time: Jul 29, 2016 at 5:13:11 AM

Latest Report: Jul 29, 2016 at 4:30 AM


Visibility: 4 mi

Pressure: 29.80 "Hg

Humidity: 94%

Dew Point: 50 °F

Location of SurgutLocation

Past Weather in Surgut — Graph

°F

Surgut Temperature Yesterday

Maximum temperature yesterday: 73 °F (at 12:00 PM)
Minimum temperature yesterday: 57 °F (at 11:00 PM)
Average temperature yesterday: 66 °F

High & Low Weather Summary for the Past Weeks

 TemperatureHumidityPressure
High84 °F (Jul 20, 12:00 PM)100% (Jul 14, 3:00 AM)30.04 "Hg (Jul 14, 3:00 AM)
Low52 °F (Jul 27, 3:00 AM)28% (Jul 19, 1:30 PM)29.47 "Hg (Jul 15, 11:30 AM)
Average69 °F71%29.83 "Hg
* Reported Jul 14 3:00 AM — Jul 29 3:30 AM, Surgut, Weather by CustomWeather, © 2016

Note: Actual official high and low records may vary slightly from our data, if they occured in-between our weather recording intervals... More about our weather records

Advertising

Surgut Weather History for the Previous 24 Hours

Scroll right to see more
 ConditionsComfort  
Time TempWeatherWind HumidityBarometerVisibility
3:30 AM
Fri, Jul 29
52 °FClear.6 mph94%29.83 "Hg4 mi
3:00 AM52 °FClear.6 mph94%29.83 "Hg4 mi
2:30 AM52 °FClear.3 mph100%29.80 "Hg4 mi
2:00 AM54 °FClear.6 mph94%29.80 "Hg4 mi
1:30 AM55 °FClear.6 mph88%29.80 "Hg4 mi
1:00 AM54 °FClear.6 mph100%29.80 "Hg4 mi
12:30 AM55 °FClear.3 mph94%29.80 "Hg4 mi
12:00 AM55 °FClear.3 mph94%29.80 "Hg4 mi
11:30 PM
Thu, Jul 28
57 °FClear.3 mph88%29.80 "Hg4 mi
11:00 PM57 °FClear.3 mph88%29.80 "Hg4 mi
10:30 PM59 °FClear.3 mph82%29.80 "Hg4 mi
10:00 PM59 °FClear.3 mph77%29.80 "Hg4 mi
9:30 PM61 °FClear.3 mph77%29.80 "Hg4 mi
9:00 PM63 °FClear.3 mph73%29.80 "Hg4 mi
8:30 PM64 °FClear.1 mph68%29.80 "Hg4 mi
8:00 PM64 °FClear.3 mph68%29.80 "Hg4 mi
7:30 PM64 °FPassing clouds.8 mph68%29.77 "Hg4 mi
7:00 PM66 °FPassing clouds.10 mph68%29.77 "Hg4 mi
6:30 PM68 °FScattered clouds.6 mph64%29.77 "Hg4 mi
6:00 PM68 °FScattered clouds.6 mph64%29.77 "Hg4 mi
5:30 PM68 °FScattered clouds.8 mph64%29.77 "Hg4 mi
5:00 PM70 °FScattered clouds.10 mph64%29.77 "Hg4 mi
4:30 PM70 °FScattered clouds.15 mph64%29.77 "Hg4 mi
4:00 PM70 °FScattered clouds.13 mph69%29.74 "Hg4 mi
3:30 PM72 °FScattered clouds.10 mph65%29.74 "Hg4 mi
3:00 PM72 °FScattered clouds.13 mph65%29.74 "Hg4 mi
2:30 PM72 °FScattered clouds.10 mph69%29.74 "Hg4 mi
2:00 PM72 °FScattered clouds.8 mph65%29.74 "Hg4 mi
1:30 PM73 °FScattered clouds.8 mph61%29.74 "Hg4 mi
1:00 PM72 °FScattered clouds.8 mph69%29.74 "Hg4 mi
12:30 PM68 °FScattered clouds.10 mph83%29.74 "Hg4 mi
12:00 PM73 °FScattered clouds.8 mph65%29.74 "Hg4 mi
11:30 AM72 °FScattered clouds.6 mph69%29.74 "Hg4 mi
11:00 AM72 °FScattered clouds.6 mph69%29.74 "Hg4 mi
10:30 AM70 °FPassing clouds.6 mph73%29.74 "Hg4 mi
10:00 AM70 °FClear.8 mph73%29.74 "Hg4 mi
9:30 AM68 °FClear.6 mph78%29.74 "Hg4 mi
9:00 AM68 °FPassing clouds.6 mph83%29.74 "Hg4 mi
8:30 AM66 °FPassing clouds.6 mph88%29.74 "Hg4 mi
8:00 AM64 °FPassing clouds.6 mph94%29.74 "Hg4 mi
7:30 AM63 °FClear.6 mph100%29.74 "Hg4 mi
7:00 AM63 °FClear.6 mph100%29.74 "Hg4 mi
6:30 AM63 °FPassing clouds.8 mph94%29.74 "Hg4 mi
6:00 AM63 °FPassing clouds.6 mph94%29.74 "Hg4 mi
5:30 AM63 °FPassing clouds.6 mph94%29.74 "Hg4 mi
5:00 AM63 °FSprinkles. Passing clouds.3 mph94%29.74 "Hg4 mi
Weather by CustomWeather, © 2016

See weather overviewHow to use our weather pages